Tracking 27086 objects as of 22-Mar-2023
HD Live streaming from Space Station
objects crossing your sky now

XM-2

Track XM-2 now!
XM-2 is classified as:


NORAD ID: 26724
Int'l Code: 2001-012A
Perigee: 36,111.1 km
Apogee: 36,149.4 km
Inclination: 6.8 °
Period: 1,453.3 minutes
Semi major axis: 42501 km
RCS: 25.1188 m2 (large)
Launch date: March 18, 2001
Source: United States (US)
Launch site: SEA LAUNCH (SEAL)

100 channels of digital music uplinked in the X-band from one or more ground stations.
Your satellite tracking list
Your tracking list is empty




NASA's NSSDC Master Catalog

Two Line Element Set (TLE):
1 26724U 01012A   23080.78322479 -.00000256  00000-0  00000-0 0  9994
2 26724   6.7898  67.4984 0004506   3.9786 154.3417  0.99083357 30515
Source of the keplerian elements: AFSPC